JST768 YSSY-YPAD

Flight info

Callsign JST768
Flight time 1h 43m
Altitude 34000
Route TESAT A576 KADOM H44 MAXEM Q60 KAKLU H309 AD
Aircraft A320/M-SDE3FGHIRWY/LB1

Departure

Time 2026-04-23 10:52
Airport Sydney Kingsford Smith International Airport (YSSY)

Arrival

Time 2026-04-23 12:35
Airport Adelaide International Airport (YPAD)
Time Latitude Longitude Altitude Speed Heading
2026-04-23 10:32 -33.93513 151.17686 30 ft 0 kts 101°
2026-04-23 10:43 -33.93513 151.17683 30 ft 1 kts 101°
2026-04-23 10:43 -33.93510 151.17662 30 ft 3 kts 98°
2026-04-23 10:43 -33.93507 151.17638 30 ft 3 kts 91°
2026-04-23 10:43 -33.93508 151.17614 30 ft 3 kts 72°
2026-04-23 10:44 -33.93515 151.17596 30 ft 3 kts 14°
2026-04-23 10:44 -33.93521 151.17594 30 ft 0 kts 348°
2026-04-23 10:46 -33.93520 151.17594 30 ft 1 kts 348°
2026-04-23 10:47 -33.93506 151.17591 30 ft 3 kts 348°
2026-04-23 10:47 -33.93479 151.17584 30 ft 5 kts 351°
2026-04-23 10:47 -33.93441 151.17579 30 ft 4 kts 353°
2026-04-23 10:47 -33.93425 151.17586 30 ft 3 kts 21°
2026-04-23 10:48 -33.93398 151.17595 30 ft 5 kts 360°
2026-04-23 10:48 -33.93374 151.17578 30 ft 3 kts 290°
2026-04-23 10:48 -33.93370 151.17543 30 ft 5 kts 264°
2026-04-23 10:48 -33.93380 151.17494 30 ft 7 kts 257°
2026-04-23 10:49 -33.93390 151.17439 30 ft 7 kts 258°
2026-04-23 10:49 -33.93394 151.17412 29 ft 1 kts 258°
2026-04-23 10:49 -33.93395 151.17409 29 ft 0 kts 258°
2026-04-23 10:50 -33.93395 151.17407 29 ft 2 kts 258°
2026-04-23 10:50 -33.93407 151.17342 28 ft 12 kts 258°
2026-04-23 10:51 -33.93445 151.17291 27 ft 7 kts 185°
2026-04-23 10:51 -33.93474 151.17298 27 ft 8 kts 167°
2026-04-23 10:51 -33.93790 151.17383 26 ft 82 kts 168°
2026-04-23 10:51 -33.94542 151.17580 30 ft 136 kts 168°
2026-04-23 10:52 -33.95581 151.17840 316 ft 158 kts 171°
2026-04-23 10:52 -33.96696 151.17895 986 ft 165 kts 179°
2026-04-23 10:52 -33.97868 151.17851 1590 ft 172 kts 180°
2026-04-23 10:52 -33.99092 151.17786 2009 ft 185 kts 181°
2026-04-23 10:53 -33.99995 151.17726 2164 ft 201 kts 181°
2026-04-23 10:53 -34.01456 151.17627 2442 ft 225 kts 181°
2026-04-23 10:53 -34.03096 151.17674 2894 ft 244 kts 166°
2026-04-23 10:53 -34.04772 151.18191 3697 ft 249 kts 164°
2026-04-23 10:54 -34.06463 151.18744 4562 ft 253 kts 164°
2026-04-23 10:54 -34.08146 151.19306 5418 ft 256 kts 164°
2026-04-23 10:54 -34.09899 151.19894 6249 ft 260 kts 163°
2026-04-23 10:54 -34.11636 151.20476 7065 ft 264 kts 163°
2026-04-23 10:55 -34.13418 151.21073 7838 ft 267 kts 163°
2026-04-23 10:55 -34.15217 151.21677 8625 ft 270 kts 163°
2026-04-23 10:55 -34.17041 151.22278 9408 ft 274 kts 166°
2026-04-23 10:55 -34.18963 151.22380 10160 ft 282 kts 186°
2026-04-23 10:56 -34.20851 151.21650 10831 ft 293 kts 205°
2026-04-23 10:56 -34.22507 151.20063 11132 ft 317 kts 226°
2026-04-23 10:56 -34.23750 151.17766 11383 ft 341 kts 245°
2026-04-23 10:56 -34.24238 151.14874 11610 ft 363 kts 270°
2026-04-23 10:57 -34.23650 151.11877 12108 ft 373 kts 296°
2026-04-23 10:57 -34.22203 151.09264 12694 ft 377 kts 307°
2026-04-23 10:57 -34.20631 151.06763 13313 ft 380 kts 308°
2026-04-23 10:57 -34.18982 151.04191 13935 ft 384 kts 308°
2026-04-23 10:58 -34.17349 151.01663 14527 ft 388 kts 308°
2026-04-23 10:58 -34.15681 150.99084 15056 ft 392 kts 308°
2026-04-23 10:58 -34.13995 150.96469 15572 ft 396 kts 308°
2026-04-23 10:58 -34.12301 150.93827 16077 ft 400 kts 308°
2026-04-23 10:59 -34.10594 150.91162 16559 ft 404 kts 308°
2026-04-23 10:59 -34.08864 150.88464 17046 ft 408 kts 308°
2026-04-23 10:59 -34.07118 150.85739 17554 ft 413 kts 309°
2026-04-23 10:59 -34.05353 150.82988 18051 ft 417 kts 309°
2026-04-23 11:00 -34.03570 150.80211 18565 ft 421 kts 309°
2026-04-23 11:00 -34.01769 150.77409 19030 ft 425 kts 309°
2026-04-23 11:00 -33.99361 150.73656 19676 ft 429 kts 308°
2026-04-23 11:00 -33.98124 150.71731 20008 ft 430 kts 308°
2026-04-23 11:01 -33.96286 150.68876 20510 ft 433 kts 308°
2026-04-23 11:01 -33.94431 150.66001 21004 ft 435 kts 308°
2026-04-23 11:01 -33.92565 150.63116 21474 ft 438 kts 308°
2026-04-23 11:01 -33.90694 150.60217 21936 ft 440 kts 307°
2026-04-23 11:02 -33.88810 150.57298 22397 ft 442 kts 307°
2026-04-23 11:02 -33.86946 150.54409 22837 ft 444 kts 307°
2026-04-23 11:02 -33.85046 150.51468 23281 ft 446 kts 307°
2026-04-23 11:02 -33.83109 150.48476 23731 ft 448 kts 306°
2026-04-23 11:03 -33.81186 150.45514 24148 ft 451 kts 306°
2026-04-23 11:03 -33.79276 150.42575 24528 ft 452 kts 306°
2026-04-23 11:03 -33.77330 150.39586 24916 ft 453 kts 306°
2026-04-23 11:03 -33.75392 150.36588 25287 ft 454 kts 303°
2026-04-23 11:04 -33.73744 150.33354 25653 ft 451 kts 293°
2026-04-23 11:04 -33.72598 150.29911 26010 ft 448 kts 283°
2026-04-23 11:04 -33.71940 150.26249 26377 ft 445 kts 273°
2026-04-23 11:04 -33.71794 150.22545 26755 ft 441 kts 264°
2026-04-23 11:05 -33.72062 150.18886 27135 ft 440 kts 260°
2026-04-23 11:05 -33.72379 150.15229 27517 ft 441 kts 260°
2026-04-23 11:05 -33.72697 150.11558 27878 ft 442 kts 260°
2026-04-23 11:05 -33.73013 150.07926 28240 ft 443 kts 260°
2026-04-23 11:06 -33.73645 150.00565 29161 ft 441 kts 260°
2026-04-23 11:06 -33.73954 149.96911 29699 ft 438 kts 261°
2026-04-23 11:06 -33.74261 149.93271 30229 ft 436 kts 260°
2026-04-23 11:07 -33.74567 149.89643 30740 ft 434 kts 261°
2026-04-23 11:07 -33.74874 149.86036 31190 ft 432 kts 261°
2026-04-23 11:07 -33.75177 149.82459 31627 ft 429 kts 261°
2026-04-23 11:07 -33.75474 149.78932 32067 ft 427 kts 261°
2026-04-23 11:08 -33.75772 149.75379 32515 ft 425 kts 261°
2026-04-23 11:08 -33.76067 149.71841 32962 ft 423 kts 261°
2026-04-23 11:08 -33.76357 149.68356 33403 ft 421 kts 261°
2026-04-23 11:08 -33.76650 149.64845 33863 ft 419 kts 261°
2026-04-23 11:09 -33.76938 149.61385 34308 ft 417 kts 261°
2026-04-23 11:09 -33.77228 149.57896 34466 ft 418 kts 261°
2026-04-23 11:09 -33.77517 149.54416 34494 ft 425 kts 261°
2026-04-23 11:10 -33.78095 149.47306 34489 ft 430 kts 261°
2026-04-23 11:10 -33.78677 149.40113 34488 ft 431 kts 261°
2026-04-23 11:11 -33.79256 149.32958 34484 ft 431 kts 261°
2026-04-23 11:11 -33.79829 149.25806 34478 ft 432 kts 261°
2026-04-23 11:12 -33.80401 149.18585 34471 ft 432 kts 262°
2026-04-23 11:12 -33.80968 149.11403 34465 ft 433 kts 262°
2026-04-23 11:13 -33.81526 149.04177 34459 ft 434 kts 262°
2026-04-23 11:13 -33.82081 148.96976 34455 ft 434 kts 262°
2026-04-23 11:14 -33.82644 148.89730 34450 ft 434 kts 262°
2026-04-23 11:14 -33.83201 148.82532 34439 ft 434 kts 262°
2026-04-23 11:15 -33.83747 148.75245 34439 ft 435 kts 262°
2026-04-23 11:15 -33.84286 148.68028 34436 ft 435 kts 262°
2026-04-23 11:16 -33.85240 148.60865 34430 ft 433 kts 256°
2026-04-23 11:16 -33.86432 148.53743 34431 ft 434 kts 256°
2026-04-23 11:17 -33.87605 148.46641 34429 ft 434 kts 256°
2026-04-23 11:17 -33.88788 148.39493 34427 ft 434 kts 256°
2026-04-23 11:18 -33.89967 148.32366 34425 ft 435 kts 256°
2026-04-23 11:18 -33.91140 148.25250 34431 ft 435 kts 256°
2026-04-23 11:19 -33.92310 148.18088 34433 ft 435 kts 256°
2026-04-23 11:19 -33.93471 148.10951 34429 ft 436 kts 256°
2026-04-23 11:20 -33.94633 148.03814 34431 ft 436 kts 256°
2026-04-23 11:20 -33.95796 147.96630 34432 ft 436 kts 256°
2026-04-23 11:21 -33.96954 147.89459 34436 ft 436 kts 256°
2026-04-23 11:21 -33.98112 147.82288 34436 ft 436 kts 256°
2026-04-23 11:22 -33.99255 147.75103 34436 ft 436 kts 256°
2026-04-23 11:22 -34.00386 147.67962 34437 ft 436 kts 256°
2026-04-23 11:23 -34.01529 147.60789 34436 ft 435 kts 256°
2026-04-23 11:23 -34.02667 147.53627 34434 ft 435 kts 256°
2026-04-23 11:24 -34.03801 147.46454 34430 ft 435 kts 256°
2026-04-23 11:24 -34.04924 147.39289 34427 ft 435 kts 256°
2026-04-23 11:25 -34.06040 147.32126 34427 ft 435 kts 256°
2026-04-23 11:25 -34.07152 147.24960 34427 ft 434 kts 256°
2026-04-23 11:26 -34.08270 147.17802 34425 ft 434 kts 256°
2026-04-23 11:26 -34.09377 147.10634 34424 ft 434 kts 256°
2026-04-23 11:27 -34.10476 147.03471 34421 ft 435 kts 256°
2026-04-23 11:27 -34.11571 146.96292 34412 ft 435 kts 256°
2026-04-23 11:28 -34.12667 146.89113 34410 ft 435 kts 256°
2026-04-23 11:28 -34.13761 146.81921 34409 ft 436 kts 256°
2026-04-23 11:29 -34.14857 146.74721 34404 ft 436 kts 256°
2026-04-23 11:29 -34.15945 146.67515 34401 ft 437 kts 257°
2026-04-23 11:30 -34.17026 146.60292 34397 ft 437 kts 257°
2026-04-23 11:30 -34.18107 146.53053 34398 ft 438 kts 257°
2026-04-23 11:31 -34.19182 146.45806 34404 ft 438 kts 257°
2026-04-23 11:31 -34.20262 146.38550 34398 ft 439 kts 257°
2026-04-23 11:32 -34.21333 146.31288 34395 ft 439 kts 257°
2026-04-23 11:32 -34.22401 146.24000 34401 ft 446 kts 253°
2026-04-23 11:33 -34.23482 146.16609 34408 ft 447 kts 253°
2026-04-23 11:33 -34.24555 146.09213 34405 ft 447 kts 253°
2026-04-23 11:34 -34.25587 146.01796 34404 ft 448 kts 255°
2026-04-23 11:34 -34.26498 145.94335 34396 ft 449 kts 256°
2026-04-23 11:35 -34.27388 145.86864 34395 ft 449 kts 255°
2026-04-23 11:35 -34.28292 145.79406 34392 ft 448 kts 255°
2026-04-23 11:36 -34.29208 145.71943 34397 ft 448 kts 255°
2026-04-23 11:36 -34.30116 145.64481 34397 ft 448 kts 256°
2026-04-23 11:37 -34.31022 145.57013 34401 ft 448 kts 256°
2026-04-23 11:37 -34.31916 145.49544 34399 ft 448 kts 256°
2026-04-23 11:38 -34.32656 145.43344 34398 ft 448 kts 256°
2026-04-23 11:38 -34.33548 145.35870 34396 ft 448 kts 256°
2026-04-23 11:39 -34.34431 145.28399 34400 ft 448 kts 256°
2026-04-23 11:39 -34.35310 145.20936 34397 ft 448 kts 256°
2026-04-23 11:40 -34.36191 145.13468 34399 ft 448 kts 256°
2026-04-23 11:40 -34.37056 145.05997 34401 ft 448 kts 257°
2026-04-23 11:41 -34.37916 144.98536 34397 ft 448 kts 257°
2026-04-23 11:41 -34.38778 144.91059 34399 ft 448 kts 257°
2026-04-23 11:42 -34.39629 144.83632 34397 ft 448 kts 257°
2026-04-23 11:42 -34.40482 144.76156 34399 ft 447 kts 257°
2026-04-23 11:43 -34.41322 144.68713 34393 ft 447 kts 257°
2026-04-23 11:43 -34.42172 144.61223 34394 ft 447 kts 257°
2026-04-23 11:44 -34.43012 144.53771 34394 ft 447 kts 257°
2026-04-23 11:44 -34.43843 144.46331 34394 ft 447 kts 257°
2026-04-23 11:45 -34.44668 144.38852 34393 ft 447 kts 257°
2026-04-23 11:45 -34.45492 144.31367 34393 ft 447 kts 258°
2026-04-23 11:46 -34.46311 144.23923 34390 ft 447 kts 258°
2026-04-23 11:46 -34.47127 144.16470 34393 ft 447 kts 258°
2026-04-23 11:47 -34.47934 144.08983 34396 ft 447 kts 258°
2026-04-23 11:47 -34.48730 144.01540 34397 ft 447 kts 258°
2026-04-23 11:48 -34.49530 143.94082 34390 ft 447 kts 258°
2026-04-23 11:48 -34.50326 143.86593 34383 ft 447 kts 258°
2026-04-23 11:49 -34.51114 143.79147 34385 ft 447 kts 258°
2026-04-23 11:49 -34.51900 143.71640 34389 ft 447 kts 259°
2026-04-23 11:50 -34.52673 143.64179 34387 ft 448 kts 259°
2026-04-23 11:50 -34.53452 143.56680 34389 ft 447 kts 259°
2026-04-23 11:51 -34.54225 143.49218 34384 ft 447 kts 259°
2026-04-23 11:51 -34.55002 143.41713 34386 ft 447 kts 259°
2026-04-23 11:52 -34.55770 143.34218 34381 ft 447 kts 259°
2026-04-23 11:52 -34.56527 143.26740 34386 ft 447 kts 259°
2026-04-23 11:53 -34.57281 143.19281 34389 ft 447 kts 259°
2026-04-23 11:53 -34.58031 143.11763 34386 ft 447 kts 259°
2026-04-23 11:54 -34.58768 143.04280 34385 ft 447 kts 259°
2026-04-23 11:54 -34.59505 142.96797 34387 ft 447 kts 259°
2026-04-23 11:55 -34.60239 142.89337 34389 ft 447 kts 259°
2026-04-23 11:55 -34.60978 142.81827 34384 ft 446 kts 260°
2026-04-23 11:56 -34.61705 142.74359 34382 ft 446 kts 260°
2026-04-23 11:56 -34.62423 142.66879 34382 ft 446 kts 260°
2026-04-23 11:57 -34.63138 142.59405 34378 ft 446 kts 260°
2026-04-23 11:57 -34.63792 142.51925 34377 ft 446 kts 262°
2026-04-23 11:58 -34.64226 142.44434 34380 ft 447 kts 263°
2026-04-23 11:58 -34.64590 142.36890 34378 ft 447 kts 263°
2026-04-23 11:59 -34.64974 142.29339 34384 ft 447 kts 263°
2026-04-23 11:59 -34.65391 142.21846 34382 ft 446 kts 263°
2026-04-23 12:00 -34.65819 142.14341 34381 ft 446 kts 263°
2026-04-23 12:00 -34.66235 142.06814 34384 ft 445 kts 263°
2026-04-23 12:01 -34.66637 141.99336 34381 ft 445 kts 263°
2026-04-23 12:01 -34.67031 141.91856 34378 ft 445 kts 263°
2026-04-23 12:02 -34.67423 141.84349 34379 ft 445 kts 263°
2026-04-23 12:02 -34.67812 141.76842 34380 ft 444 kts 263°
2026-04-23 12:03 -34.68196 141.69377 34381 ft 444 kts 263°
2026-04-23 12:03 -34.68579 141.61885 34378 ft 443 kts 264°
2026-04-23 12:04 -34.68962 141.54399 34376 ft 443 kts 264°
2026-04-23 12:04 -34.69323 141.46963 34379 ft 442 kts 264°
2026-04-23 12:05 -34.69680 141.39534 34383 ft 442 kts 264°
2026-04-23 12:05 -34.70039 141.32074 34380 ft 442 kts 264°
2026-04-23 12:06 -34.70394 141.24610 34374 ft 441 kts 264°
2026-04-23 12:06 -34.70923 141.13443 34370 ft 441 kts 264°
2026-04-23 12:07 -34.71261 141.06042 34371 ft 441 kts 264°
2026-04-23 12:07 -34.71598 140.98590 34366 ft 440 kts 264°
2026-04-23 12:08 -34.71932 140.91185 34366 ft 440 kts 264°
2026-04-23 12:08 -34.72257 140.83750 34367 ft 440 kts 264°
2026-04-23 12:09 -34.72578 140.76327 34368 ft 439 kts 264°
2026-04-23 12:09 -34.72890 140.68945 34370 ft 439 kts 265°
2026-04-23 12:10 -34.73204 140.61535 34367 ft 439 kts 265°
2026-04-23 12:10 -34.73517 140.54124 34375 ft 438 kts 265°
2026-04-23 12:11 -34.73823 140.46733 34368 ft 438 kts 265°
2026-04-23 12:11 -34.74119 140.39339 34376 ft 438 kts 265°
2026-04-23 12:12 -34.74266 140.35644 34206 ft 437 kts 265°
2026-04-23 12:12 -34.74415 140.31955 33935 ft 437 kts 265°
2026-04-23 12:12 -34.74561 140.28266 33669 ft 437 kts 265°
2026-04-23 12:12 -34.74705 140.24561 33402 ft 438 kts 265°
2026-04-23 12:13 -34.74846 140.20859 33145 ft 439 kts 265°
2026-04-23 12:13 -34.74985 140.17147 32915 ft 438 kts 265°
2026-04-23 12:13 -34.75251 140.09925 32902 ft 412 kts 265°
2026-04-23 12:14 -34.75381 140.06504 32900 ft 397 kts 265°
2026-04-23 12:14 -34.75505 140.03200 32902 ft 383 kts 265°
2026-04-23 12:14 -34.75623 140.00018 32871 ft 371 kts 265°
2026-04-23 12:14 -34.75740 139.96875 32117 ft 378 kts 265°
2026-04-23 12:15 -34.75866 139.93588 30850 ft 400 kts 265°
2026-04-23 12:15 -34.75998 139.90174 29353 ft 421 kts 265°
2026-04-23 12:15 -34.76134 139.86489 28063 ft 436 kts 266°
2026-04-23 12:15 -34.76263 139.82838 27707 ft 429 kts 266°
2026-04-23 12:16 -34.76388 139.79223 27332 ft 427 kts 266°
2026-04-23 12:16 -34.76512 139.75624 26756 ft 424 kts 266°
2026-04-23 12:16 -34.76635 139.72055 26189 ft 421 kts 266°
2026-04-23 12:16 -34.76757 139.68514 25626 ft 418 kts 266°
2026-04-23 12:17 -34.76875 139.65037 25076 ft 415 kts 266°
2026-04-23 12:17 -34.76992 139.61537 24531 ft 413 kts 266°
2026-04-23 12:17 -34.77108 139.58058 23993 ft 411 kts 266°
2026-04-23 12:17 -34.77223 139.54599 23408 ft 408 kts 266°
2026-04-23 12:18 -34.77336 139.51167 22900 ft 404 kts 266°
2026-04-23 12:18 -34.77446 139.47748 22411 ft 402 kts 266°
2026-04-23 12:18 -34.77561 139.44367 21924 ft 399 kts 265°
2026-04-23 12:18 -34.77997 139.41047 21437 ft 395 kts 254°
2026-04-23 12:19 -34.78918 139.37918 20967 ft 392 kts 244°
2026-04-23 12:19 -34.80077 139.34918 20472 ft 391 kts 244°
2026-04-23 12:19 -34.81224 139.31928 19983 ft 389 kts 244°
2026-04-23 12:19 -34.82358 139.28948 19473 ft 387 kts 244°
2026-04-23 12:20 -34.83483 139.25982 18985 ft 385 kts 245°
2026-04-23 12:20 -34.84588 139.23064 18443 ft 384 kts 245°
2026-04-23 12:20 -34.85717 139.20079 17891 ft 381 kts 245°
2026-04-23 12:20 -34.86823 139.17157 17362 ft 378 kts 245°
2026-04-23 12:21 -34.87919 139.14254 16835 ft 376 kts 245°
2026-04-23 12:21 -34.89006 139.11368 16302 ft 374 kts 245°
2026-04-23 12:21 -34.90091 139.08499 15774 ft 372 kts 245°
2026-04-23 12:21 -34.91014 139.06069 15358 ft 370 kts 245°
2026-04-23 12:22 -34.92082 139.03244 15229 ft 356 kts 245°
2026-04-23 12:22 -34.93085 139.00588 15103 ft 342 kts 246°
2026-04-23 12:22 -34.94040 138.98057 14674 ft 331 kts 246°
2026-04-23 12:22 -34.94994 138.95530 14081 ft 326 kts 246°
2026-04-23 12:23 -34.95936 138.93030 13407 ft 323 kts 246°
2026-04-23 12:23 -34.96868 138.90550 12749 ft 320 kts 246°
2026-04-23 12:23 -34.97479 138.88923 12323 ft 318 kts 246°
2026-04-23 12:23 -34.98387 138.86501 11964 ft 306 kts 246°
2026-04-23 12:24 -34.99254 138.84194 11635 ft 295 kts 246°
2026-04-23 12:24 -35.00100 138.81945 11151 ft 290 kts 246°
2026-04-23 12:24 -35.01201 138.79008 10777 ft 286 kts 246°
2026-04-23 12:24 -35.01759 138.77510 10686 ft 288 kts 246°
2026-04-23 12:25 -35.02581 138.75277 10543 ft 288 kts 246°
2026-04-23 12:25 -35.03397 138.73054 10402 ft 286 kts 246°
2026-04-23 12:25 -35.04222 138.70809 9890 ft 294 kts 246°
2026-04-23 12:25 -35.05062 138.68512 9313 ft 297 kts 246°
2026-04-23 12:26 -35.05896 138.66223 8749 ft 293 kts 246°
2026-04-23 12:26 -35.06754 138.63985 8236 ft 288 kts 242°
2026-04-23 12:26 -35.07701 138.61850 7736 ft 284 kts 239°
2026-04-23 12:26 -35.08714 138.59800 7251 ft 280 kts 238°
2026-04-23 12:27 -35.09732 138.57793 6787 ft 276 kts 238°
2026-04-23 12:27 -35.10741 138.55809 6293 ft 273 kts 238°
2026-04-23 12:27 -35.11729 138.53896 5818 ft 263 kts 235°
2026-04-23 12:27 -35.12801 138.52177 5361 ft 246 kts 230°
2026-04-23 12:28 -35.13859 138.50612 4947 ft 232 kts 230°
2026-04-23 12:28 -35.14746 138.49035 4481 ft 221 kts 252°
2026-04-23 12:28 -35.14842 138.47259 4089 ft 203 kts 289°
2026-04-23 12:28 -35.14195 138.45816 3714 ft 190 kts 310°
2026-04-23 12:29 -35.13385 138.44575 3356 ft 184 kts 313°
2026-04-23 12:29 -35.12543 138.43442 3110 ft 178 kts 319°
2026-04-23 12:29 -35.11655 138.42434 2894 ft 166 kts 322°
2026-04-23 12:29 -35.10826 138.41574 2693 ft 149 kts 326°
2026-04-23 12:30 -35.10042 138.40794 2491 ft 142 kts 326°
2026-04-23 12:30 -35.09279 138.40045 2303 ft 140 kts 327°
2026-04-23 12:30 -35.08444 138.39554 2094 ft 130 kts
2026-04-23 12:30 -35.07644 138.39985 1955 ft 128 kts 36°
2026-04-23 12:31 -35.06929 138.40636 1811 ft 128 kts 33°
2026-04-23 12:31 -35.06177 138.41200 1777 ft 127 kts 30°
2026-04-23 12:31 -35.05402 138.41728 1799 ft 128 kts 28°
2026-04-23 12:31 -35.04620 138.42226 1809 ft 126 kts 27°
2026-04-23 12:32 -35.03828 138.42707 1827 ft 127 kts 26°
2026-04-23 12:32 -35.03032 138.43190 1841 ft 127 kts 27°
2026-04-23 12:32 -35.02245 138.43688 1840 ft 128 kts 28°
2026-04-23 12:32 -35.01460 138.44212 1739 ft 128 kts 31°
2026-04-23 12:33 -35.00771 138.44901 1543 ft 129 kts 42°
2026-04-23 12:33 -35.00133 138.45662 1355 ft 127 kts 43°
2026-04-23 12:33 -34.99504 138.46427 1157 ft 130 kts 46°
2026-04-23 12:33 -34.98895 138.47245 924 ft 132 kts 50°
2026-04-23 12:34 -34.98311 138.48109 775 ft 133 kts 49°
2026-04-23 12:34 -34.97753 138.48974 615 ft 134 kts 49°
2026-04-23 12:34 -34.97144 138.49835 496 ft 134 kts 49°
2026-04-23 12:34 -34.96544 138.50697 351 ft 132 kts 50°
2026-04-23 12:35 -34.95972 138.51556 160 ft 131 kts 50°
2026-04-23 12:35 -34.95391 138.52390 37 ft 122 kts 49°
2026-04-23 12:35 -34.94934 138.53062 28 ft 80 kts 50°
2026-04-23 12:35 -34.94680 138.53427 27 ft 41 kts 49°
2026-04-23 12:36 -34.94574 138.53516 27 ft 9 kts 337°
2026-04-23 12:36 -34.94529 138.53451 26 ft 11 kts 310°
2026-04-23 12:36 -34.94461 138.53401 28 ft 13 kts
2026-04-23 12:36 -34.94431 138.53439 27 ft 5 kts 75°
2026-04-23 12:37 -34.94409 138.53488 27 ft 8 kts 53°
2026-04-23 12:37 -34.94366 138.53549 28 ft 11 kts 46°
2026-04-23 12:37 -34.94309 138.53627 28 ft 14 kts 49°
2026-04-23 12:37 -34.94228 138.53644 28 ft 13 kts 324°
2026-04-23 12:38 -34.94182 138.53645 29 ft 7 kts 38°
2026-04-23 12:38 -34.94144 138.53684 27 ft 5 kts 360°
2026-04-23 12:38 -34.94110 138.53654 31 ft 7 kts 306°
2026-04-23 12:38 -34.94101 138.53645 30 ft 1 kts 319°
2026-04-23 12:39 -34.94088 138.53631 28 ft 3 kts 320°
2026-04-23 12:39 -34.94082 138.53625 29 ft 0 kts 320°